User: anonymous   Login
Location: Unspecified
(0.0000°N, 0.0000°E)
Time: 20:44:47
(UTC+00:00)
Language:

UFO 10 - Orbit

View from above orbital plane
View from above orbital plane
View from above satellite
View from above satellite

Ground track
Ground track

The orbit data is extracted from the following two-line orbital elements,

1 25967U 99063A   21136.23038103 -.00000179  00000-0  00000-0 0  9997
2 25967   8.2434  34.6843 0005818  40.8383 218.7285  1.00270853 78710
Epoch (UTC): 16 May 2021 05:31:44
Eccentricity: 0.0005818
inclination: 8.2434°
perigee height: 35762 km
apogee height: 35811 km
right ascension of ascending node: 34.6843°
argument of perigee: 40.8383°
revolutions per day: 1.00270853
mean anomaly at epoch: 218.7285°
orbit number at epoch: 7871

The dashed part of the orbit path shows where the satellite is in the earth's shadow,  

DLR